DW5338 Weather Reports


Display with metric or nautical units.
time (UTC)temp
F
wind
direction
speed
MPH
gust
MPH
rain 1hr
in
rain 24hr
in
rain mn
in
humidity
%
barometer
mb
20260831175035 67 293 6.0 11.0 0.00 0.02 0.00 41 1028.3
20260831174020 67 293 5.0 11.0 0.00 0.02 0.00 40 1028.1
20260831173040 67 293 4.0 10.0 0.00 0.02 0.00 40 1028.1
20260831172020 67 248 4.0 11.0 0.00 0.02 0.00 40 1028.1
20260831171021 68 225 5.0 11.0 0.00 0.02 0.00 39 1028.5
20260831170015 68 270 4.0 9.0 0.00 0.02 0.00 40 1028.7
20260831165021 68 270 3.0 8.0 0.00 0.02 0.00 41 1028.4
20260831164015 67 158 1.0 5.0 0.00 0.02 0.00 42 1028.7
20260831163015 67 203 3.0 6.0 0.00 0.02 0.00 41 1028.6
20260831162015 66 203 5.0 9.0 0.00 0.02 0.00 42 1028.4
20260831161021 67 158 3.0 9.0 0.00 0.02 0.00 41 1028.3
20260831160020 67 180 2.0 6.0 0.00 0.02 0.00 40 1028.2
20260831155020 66 158 3.0 8.0 0.00 0.02 0.00 40 1028.2
20260831154020 66 180 2.0 6.0 0.00 0.02 0.00 42 1028.2
20260831153015 65 225 2.0 5.0 0.00 0.02 0.00 43 1027.9
20260831152020 63 180 2.0 5.0 0.00 0.02 0.00 48 1028.0
20260831151020 62 225 2.0 5.0 0.00 0.02 0.00 51 1027.8
20260831150022 61 203 2.0 5.0 0.00 0.02 0.00 54 1027.8
20260831145022 60 203 1.0 3.0 0.00 0.02 0.00 56 1027.6
20260831144037 59 180 3.0 5.0 0.00 0.02 0.00 57 1027.7
20260831143017 58 203 1.0 2.0 0.00 0.02 0.00 59 1027.3
20260831142022 57 270 3.0 7.0 0.00 0.02 0.00 58 1027.3
20260831141016 57 248 2.0 4.0 0.00 0.02 0.00 59 1027.2
20260831140022 56 248 3.0 5.0 0.00 0.02 0.00 59 1027.1
20260831135023 55 225 3.0 6.0 0.00 0.02 0.00 62 1026.7
20260831134037 54 270 3.0 4.0 0.00 0.02 0.00 63 1026.6
20260831133022 54 225 1.0 2.0 0.00 0.02 0.00 63 1026.5
20260831132022 54 293 1.0 3.0 0.00 0.02 0.00 63 1026.4
20260831131022 54 225 2.0 6.0 0.00 0.02 0.00 64 1026.4
20260831130020 54 0.0 2.0 0.00 0.02 0.00 64 1026.3
20260831125022 54 203 1.0 3.0 0.00 0.02 0.00 64 1026.1
20260831124037 53 0 2.0 3.0 0.00 0.02 0.00 63 1026.2
20260831123016 54 225 1.0 3.0 0.00 0.02 0.00 63 1026.1
20260831122022 55 225 1.0 4.0 0.00 0.02 0.00 61 1026.2
20260831121042 56 203 2.0 4.0 0.00 0.02 0.00 58 1026.4
20260831120042 57 203 2.0 4.0 0.00 0.02 0.00 55 1026.5
20260831115042 57 225 3.0 8.0 0.00 0.02 0.00 55 1026.3
20260831114017 58 225 3.0 7.0 0.00 0.02 0.00 54 1026.4
20260831113022 59 225 5.0 9.0 0.00 0.02 0.00 52 1026.4
20260831112017 59 225 4.0 7.0 0.00 0.02 0.00 52 1026.6
20260831111017 58 225 4.0 9.0 0.00 0.02 0.00 53 1026.0
20260831110022 58 225 3.0 9.0 0.00 0.02 0.00 54 1026.0
20260831105016 58 225 4.0 12.0 0.00 0.02 0.00 54 1025.7
20260831104016 57 225 3.0 7.0 0.00 0.02 0.00 55 1025.7
20260831103022 58 225 4.0 9.0 0.00 0.02 0.00 54 1025.6
20260831102016 58 203 5.0 9.0 0.00 0.02 0.00 54 1025.5
20260831101022 58 225 5.0 11.0 0.00 0.02 0.00 54 1025.5
20260831100022 58 203 5.0 9.0 0.00 0.02 0.00 54 1025.1
20260831095020 57 203 6.0 11.0 0.00 0.02 0.00 54 1025.1
20260831094016 57 225 5.0 10.0 0.00 0.02 0.00 54 1025.3
20260831093022 57 225 3.0 6.0 0.00 0.02 0.00 54 1025.3
20260831092022 58 203 4.0 7.0 0.00 0.02 0.00 54 1025.3
20260831091016 58 203 5.0 8.0 0.00 0.02 0.00 54 1025.2
20260831090022 58 225 5.0 11.0 0.00 0.02 0.00 53 1025.1
20260831085022 58 203 5.0 13.0 0.00 0.02 0.00 52 1025.2
20260831084022 58 203 6.0 11.0 0.00 0.02 0.00 52 1024.8
20260831083056 58 180 5.0 10.0 0.00 0.02 0.00 53 1024.7
20260831082022 58 180 4.0 9.0 0.00 0.02 0.00 53 1024.7
20260831081022 58 203 5.0 8.0 0.00 0.02 0.00 53 1026.1
20260831080022 58 180 5.0 14.0 0.00 0.02 0.00 52 1026.2
20260831075042 59 180 4.0 9.0 0.00 0.02 0.00 52 1026.3
20260831074036 58 180 3.0 7.0 0.00 0.02 0.00 52 1026.3
20260831073042 58 203 4.0 9.0 0.00 0.02 0.00 52 1026.3
20260831072042 58 203 5.0 10.0 0.00 0.02 0.00 53 1026.5
20260831071042 58 225 5.0 8.0 0.00 0.02 0.00 54 1027.4
20260831070016 57 225 4.0 8.0 0.00 0.02 0.00 55 1027.5
20260831065016 58 225 3.0 8.0 0.00 0.02 0.00 55 1027.5
20260831064042 57 225 4.0 8.0 0.00 0.02 0.00 57 1027.2
20260831063022 55 203 5.0 9.0 0.00 0.02 0.00 62 1027.0
20260831062022 55 203 4.0 7.0 0.00 0.02 0.00 63 1027.0
20260831061022 55 203 4.0 6.0 0.00 0.02 0.00 64 1026.8
20260831060022 55 203 5.0 8.0 0.00 0.02 0.02 63 1026.9
20260831055022 55 225 6.0 11.0 0.00 0.02 0.02 62 1026.9
20260831054056 54 203 5.0 9.0 0.00 0.02 0.02 64 1026.8
20260831053021 54 225 5.0 10.0 0.00 0.02 0.02 64 1027.1
20260831052021 54 225 8.0 14.0 0.00 0.02 0.02 64 1027.0
20260831051021 55 225 8.0 18.0 0.00 0.02 0.02 65 1027.1
20260831050041 55 225 8.0 15.0 0.00 0.02 0.02 66 1027.3
20260831045016 56 248 6.0 13.0 0.00 0.02 0.02 63 1027.8
20260831044016 57 248 10.0 16.0 0.00 0.02 0.02 61 1028.0
20260831043016 58 248 9.0 22.0 0.00 0.02 0.02 59 1027.8
20260831042016 59 225 5.0 11.0 0.00 0.02 0.02 59 1028.0
20260831041021 59 225 7.0 15.0 0.00 0.02 0.02 58 1027.5
20260831040021 58 225 5.0 11.0 0.00 0.02 0.02 62 1027.0
20260831035016 58 225 4.0 7.0 0.00 0.02 0.02 63 1026.8
20260831034041 58 225 4.0 9.0 0.00 0.02 0.02 62 1026.6
20260831033016 58 225 3.0 7.0 0.00 0.02 0.02 62 1026.5
20260831032015 59 203 4.0 8.0 0.00 0.02 0.02 61 1026.4
20260831031021 59 225 4.0 8.0 0.00 0.02 0.02 60 1026.6
20260831030016 59 225 5.0 8.0 0.00 0.02 0.02 60 1026.4
20260831025015 59 203 4.0 8.0 0.00 0.02 0.02 61 1026.2
20260831024015 59 180 6.0 11.0 0.00 0.02 0.02 60 1026.0
20260831023019 59 203 5.0 8.0 0.00 0.02 0.02 60 1025.9
20260831022015 59 203 5.0 9.0 0.00 0.02 0.02 59 1025.9
20260831021015 59 180 4.0 7.0 0.00 0.02 0.02 59 1025.3
20260831020021 60 203 5.0 11.0 0.00 0.02 0.02 58 1025.5
20260831015015 60 180 3.0 6.0 0.00 0.02 0.02 57 1025.4
20260831014036 60 180 4.0 8.0 0.00 0.02 0.02 56 1025.6
20260831013015 61 180 4.0 9.0 0.00 0.02 0.02 55 1025.5
20260831012021 61 180 5.0 13.0 0.00 0.02 0.02 55 1025.5
20260831011021 61 180 4.0 12.0 0.00 0.02 0.02 54 1025.7
20260831010021 62 203 6.0 13.0 0.00 0.02 0.02 53 1025.8
20260831005021 62 225 4.0 10.0 0.00 0.02 0.02 53 1025.5
20260831004056 62 225 3.0 8.0 0.00 0.02 0.02 52 1025.6
20260831003021 63 225 3.0 8.0 0.00 0.02 0.02 52 1025.8
20260831002015 63 180 4.0 11.0 0.00 0.02 0.02 51 1025.9
20260831001041 63 203 6.0 14.0 0.00 0.02 0.02 51 1025.5
20260831000021 64 248 7.0 15.0 0.00 0.02 0.02 48 1025.6
20260830235021 65 225 9.0 18.0 0.00 0.02 0.02 48 1025.5
20260830234021 65 225 9.0 16.0 0.00 0.02 0.02 49 1025.5
20260830233021 64 248 9.0 18.0 0.00 0.02 0.02 51 1025.3
20260830232021 64 248 9.0 18.0 0.00 0.02 0.02 49 1025.2
20260830231021 64 225 12.0 24.0 0.00 0.02 0.02 49 1024.8
20260830230021 63 225 10.0 18.0 0.00 0.02 0.02 51 1024.9
20260830225016 63 225 12.0 21.0 0.00 0.02 0.02 50 1024.5
20260830224021 62 203 12.0 25.0 0.00 0.02 0.02 51 1024.3
20260830223101 62 225 11.0 23.0 0.00 0.02 0.02 51 1024.3
20260830222015 62 203 12.0 23.0 0.00 0.02 0.02 53 1024.1
20260830221021 61 225 11.0 21.0 0.00 0.02 0.02 54 1024.0
20260830220021 62 203 9.0 24.0 0.00 0.02 0.02 55 1024.4
20260830215015 60 225 12.0 24.0 0.00 0.02 0.02 58 1024.1
20260830214015 61 203 10.0 18.0 0.00 0.02 0.02 54 1024.7
20260830213021 62 248 10.0 22.0 0.00 0.02 0.02 53 1025.0
20260830212015 62 225 8.0 18.0 0.01 0.02 0.02 58 1025.6
20260830211016 61 225 8.0 19.0 0.02 0.02 0.02 60 1025.5
20260830210021 60 270 14.0 27.0 0.02 0.02 0.02 59 1025.5
20260830205015 60 270 16.0 32.0 0.02 0.03 0.02 60 1025.6
20260830204021 57 248 10.0 26.0 0.02 0.05 0.02 69 1025.3
20260830203015 54 248 6.0 13.0 0.02 0.05 0.02 83 1025.4
20260830202015 53 225 7.0 15.0 0.01 0.04 0.01 80 1025.4
20260830201015 54 270 11.0 21.0 0.00 0.03 0.00 74 1026.1
20260830200021 61 248 12.0 28.0 0.00 0.03 0.00 60 1026.2
20260830195041 63 270 15.0 27.0 0.00 0.03 0.00 55 1025.8
20260830194041 64 225 5.0 11.0 0.00 0.03 0.00 53 1025.2
20260830193035 64 225 6.0 14.0 0.00 0.03 0.00 54 1024.9
20260830192020 63 203 4.0 10.0 0.00 0.03 0.00 57 1025.0
20260830191055 62 270 7.0 17.0 0.00 0.03 0.00 59 1024.9
20260830190015 61 270 10.0 14.0 0.00 0.03 0.00 65 1024.9
20260830185015 67 293 15.0 40.0 0.00 0.03 0.00 50 1025.4
20260830184021 72 225 3.0 9.0 0.00 0.03 0.00 39 1025.4
20260830183015 71 225 3.0 8.0 0.00 0.03 0.00 41 1025.3
20260830182021 70 248 5.0 12.0 0.00 0.03 0.00 41 1025.4
20260830181015 70 225 8.0 20.0 0.00 0.03 0.00 40 1025.5
20260830180021 69 225 6.0 18.0 0.00 0.03 0.00 41 1025.6